Temperature
1 1 1 2 2 2 2 2 2 3 3 3 3 2 2 2 2 2 2 3 3 3 3 3 4 4 4 4 4 4 5 5 5 5 5 5 5 5 5 5 5 5 5 5
1 1 1 2 2 2 2 2 2 3 3 2 2 2 2 2 2 2 2 3 3 3 3 3 3 3 4 4 4 4 4 4 5 5 5 5 5 5 5 5 5 5 5 5
0 1 2 1 1 1 1 1 2 3 3 1 1 1 1 2 2 2 2 2 3 3 3 3 3 3 3 4 4 4 4 4 4 4 4 4 4 4 4 4 4 4 4 4
-1 0 0 1 1 1 1 1 0 1 1 1 1 2 2 2 2 2 2 2 2 2 3 3 3 3 3 3 3 3 3 4 4 4 4 4 4 4 4 4 4 4 4 4
-2 -1 -0 1 0 -0 0 0 -0 0 0 0 1 1 1 2 2 2 2 2 2 2 2 2 3 3 3 3 3 3 3 3 3 4 4 4 4 4 4 3 4 4 4 4
-2 -1 0 1 0 0 1 0 -0 -1 -1 -1 -0 -0 1 2 2 2 2 2 2 2 2 2 2 2 2 2 3 3 3 3 3 3 3 3 3 3 3 3 3 3 3 3
-2 -2 -1 -1 -1 0 1 1 -0 -1 -1 -1 -1 -0 0 1 1 1 1 2 2 2 2 2 2 2 2 2 2 2 2 2 2 3 3 3 3 3 3 3 3 3 3 3
-3 -2 -1 -1 -1 -1 -1 -1 -1 -1 -1 -1 -1 -1 -1 -0 0 0 1 1 1 1 1 1 1 1 1 2 2 2 2 2 2 2 2 2 2 2 2 2 2 2 2 2
-3 -1 -1 -1 -1 -1 -1 -1 -1 -1 -1 -1 -2 -2 -1 -1 -1 -0 0 0 1 1 1 1 1 1 1 1 1 1 2 2 2 2 2 2 2 2 2 2 2 2 2 2
-3 -2 -2 -1 -1 -1 -1 -1 -1 -1 -1 -2 -2 -2 -2 -2 -1 -1 -1 -0 -0 -0 0 0 0 0 0 1 1 1 1 1 1 1 1 1 1 2 2 1 1 1 1 1
-3 -3 -2 -1 -1 -1 -1 -1 -2 -2 -2 -2 -2 -2 -2 -2 -2 -2 -1 -1 -1 -1 -0 -0 -0 -0 -0 -0 0 0 1 1 1 1 1 1 1 1 1 1 1 1 1 1
-3 -3 -3 -2 -2 -2 -2 -2 -2 -2 -2 -2 -2 -3 -3 -2 -2 -2 -2 -2 -1 -1 -1 -1 -1 -1 -1 -1 -0 -0 -0 0 0 0 0 0 0 0 0 0 0 0 1 1
-3 -2 -2 -2 -2 -3 -3 -3 -3 -3 -3 -3 -3 -3 -3 -3 -3 -2 -2 -2 -2 -2 -1 -1 -1 -1 -1 -1 -1 -1 -1 -1 -0 -0 -0 -0 -0 -0 0 0 0 -0 0 0
-3 -3 -3 -3 -3 -3 -3 -3 -3 -3 -3 -3 -3 -3 -3 -3 -3 -3 -2 -2 -2 -2 -2 -2 -2 -2 -2 -2 -1 -1 -1 -1 -1 -1 -1 -1 -1 -1 -1 -0 -0 -0 -0 -0
-3 -3 -3 -3 -3 -4 -4 -4 -4 -4 -4 -4 -4 -4 -4 -3 -3 -3 -3 -3 -3 -3 -2 -2 -2 -2 -2 -2 -2 -2 -2 -1 -1 -1 -1 -1 -1 -1 -1 -1 -1 -1 -1 -1
-4 -4 -4 -4 -4 -4 -4 -4 -4 -4 -4 -4 -4 -4 -4 -4 -4 -4 -3 -3 -3 -3 -3 -3 -3 -2 -2 -2 -2 -2 -2 -2 -2 -2 -2 -2 -2 -1 -1 -1 -1 -1 -1 -1
-5 -5 -5 -5 -5 -5 -5 -5 -5 -5 -5 -5 -4 -4 -5 -4 -4 -4 -4 -4 -4 -4 -3 -3 -3 -3 -3 -3 -3 -3 -2 -2 -2 -2 -2 -2 -2 -2 -2 -2 -2 -2 -2 -2
-6 -6 -5 -6 -6 -6 -5 -5 -5 -5 -5 -5 -5 -5 -5 -5 -5 -4 -4 -4 -4 -4 -4 -4 -3 -3 -3 -3 -3 -3 -3 -3 -3 -3 -3 -3 -3 -2 -2 -2 -2 -2 -2 -2
-6 -6 -6 -6 -6 -6 -6 -5 -5 -5 -5 -5 -5 -5 -5 -5 -5 -5 -5 -5 -4 -4 -4 -4 -4 -4 -4 -4 -4 -3 -3 -3 -3 -3 -3 -3 -3 -3 -3 -3 -3 -3 -2 -2
-6 -6 -6 -6 -6 -6 -6 -6 -6 -6 -6 -6 -6 -6 -6 -6 -6 -5 -5 -5 -5 -5 -5 -5 -4 -4 -4 -4 -4 -4 -4 -4 -4 -4 -4 -4 -3 -3 -3 -3 -3 -3 -3 -3
-6 -6 -7 -7 -7 -7 -6 -6 -6 -6 -6 -6 -6 -6 -6 -6 -6 -6 -6 -5 -5 -5 -5 -5 -5 -5 -5 -5 -4 -4 -4 -4 -4 -4 -4 -4 -4 -4 -4 -4 -3 -3 -3 -3
-7 -7 -7 -7 -7 -7 -7 -7 -7 -7 -7 -7 -7 -7 -7 -6 -6 -6 -6 -6 -6 -6 -6 -5 -5 -5 -5 -5 -5 -4 -4 -4 -4 -4 -4 -4 -4 -4 -4 -4 -4 -4 -3 -3
-7 -8 -8 -8 -8 -8 -7 -7 -7 -7 -7 -7 -7 -7 -7 -7 -7 -6 -6 -6 -6 -6 -6 -6 -6 -6 -6 -5 -5 -5 -5 -5 -5 -5 -5 -5 -5 -5 -5 -5 -4 -4 -4 -4
-8 -8 -8 -8 -8 -8 -8 -8 -8 -8 -8 -8 -7 -7 -7 -7 -7 -7 -7 -7 -7 -7 -6 -6 -6 -6 -6 -6 -6 -5 -5 -5 -5 -5 -5 -5 -5 -5 -5 -5 -5 -5 -5 -4
-9 -9 -9 -9 -9 -9 -9 -8 -8 -8 -8 -8 -8 -8 -8 -8 -7 -7 -7 -7 -7 -7 -7 -6 -6 -6 -6 -6 -6 -6 -6 -6 -5 -5 -5 -5 -5 -5 -5 -5 -5 -5 -5 -5
-9 -9 -9 -9 -9 -9 -9 -9 -9 -9 -9 -8 -8 -8 -8 -8 -8 -8 -7 -7 -7 -7 -7 -7 -7 -6 -6 -6 -6 -6 -6 -6 -6 -6 -6 -6 -6 -6 -6 -6 -5 -5 -5 -5
-10 -10 -10 -10 -10 -10 -10 -10 -9 -9 -9 -9 -9 -9 -8 -8 -8 -8 -8 -8 -7 -7 -7 -7 -7 -7 -7 -7 -7 -7 -6 -6 -6 -6 -6 -6 -6 -6 -6 -6 -6 -6 -6 -6
Wind_Speed
2 2 2 2 4 4 6 6 6 6 5 7 5 3 2 1 2 2 2 3 2 2 3 3 3 3 3 3 2 1 0 0 1 1 1 1 0 1 1 0 1 1 1 1
2 1 0 3 5 6 6 5 6 5 7 4 3 1 1 1 0 0 1 2 2 2 3 3 3 3 3 3 3 1 1 1 1 1 1 1 1 0 0 0 1 1 1 1
2 3 2 4 5 6 4 4 5 7 6 2 2 2 2 2 2 1 2 3 3 3 2 2 3 3 3 3 3 2 1 1 1 1 1 1 1 1 0 1 0 1 1 1
0 2 3 5 2 3 4 3 4 3 3 3 4 3 3 2 2 2 2 3 3 3 3 3 3 3 3 3 2 2 2 2 2 1 1 1 1 1 1 1 1 1 1 1
2 2 5 5 2 1 2 4 2 3 3 3 3 3 3 2 2 3 3 3 3 3 3 3 2 2 2 2 2 2 2 2 2 1 1 1 1 1 1 1 1 1 1 1
3 2 4 4 4 2 1 3 2 1 2 3 3 2 4 2 2 3 3 2 2 2 3 3 3 2 2 2 2 2 3 2 2 2 1 1 2 2 1 1 1 1 1 1
3 3 5 5 5 1 2 4 4 2 2 2 2 4 4 4 4 3 3 2 2 1 2 2 2 2 2 2 3 3 3 2 2 2 1 1 1 1 1 0 0 1 1 1
2 2 5 4 2 2 3 3 3 3 3 3 3 3 3 3 3 3 3 3 2 1 2 3 2 2 2 3 4 3 2 2 2 2 2 1 1 1 1 1 1 1 1 2
5 5 3 2 2 2 2 3 3 3 3 2 2 3 3 3 3 3 3 2 2 2 2 3 2 1 2 4 3 2 2 2 2 3 2 2 1 1 1 1 1 1 1 1
3 5 4 4 3 3 3 3 3 3 2 1 2 3 3 3 4 3 3 3 2 2 2 3 3 2 2 3 2 1 1 1 2 2 3 3 2 1 1 1 1 1 1 1
4 5 5 4 3 3 3 3 3 3 2 1 1 3 3 3 4 3 3 3 2 1 2 3 3 3 3 2 2 1 1 1 1 2 2 2 2 2 1 1 0 0 1 1
5 4 3 5 4 3 3 3 3 3 4 3 2 2 3 3 3 3 3 3 2 2 2 2 2 2 2 2 1 1 1 1 1 1 1 2 2 2 4 3 4 3 3 2
5 4 4 4 4 3 3 3 4 3 2 3 3 2 2 3 3 3 3 3 2 2 2 2 2 2 3 2 2 1 0 0 1 1 1 1 1 1 2 3 4 5 5 4
2 2 3 3 3 3 3 3 3 2 2 2 2 2 2 2 3 3 3 3 3 2 2 1 2 2 3 2 2 1 1 1 1 0 0 0 1 1 1 1 2 2 4 5
3 2 3 3 2 3 2 2 3 3 3 3 3 2 3 3 4 4 4 3 2 2 2 2 2 3 3 1 1 1 1 0 0 0 1 1 1 1 1 1 1 1 2 3
3 2 1 2 2 3 3 3 3 4 3 3 3 3 3 3 4 4 4 2 2 2 2 2 2 3 2 1 1 1 1 1 1 0 1 1 1 1 1 1 1 1 1 2
2 2 2 3 4 4 3 3 4 4 4 4 4 4 3 3 3 4 3 3 2 2 2 2 3 3 2 1 1 0 1 0 1 1 0 0 1 0 1 1 1 1 1 2
3 3 3 4 4 4 5 4 4 4 4 4 4 3 3 3 3 4 4 3 3 3 3 2 2 2 2 1 1 0 0 0 0 0 0 0 0 0 0 0 0 0 1 1
2 2 3 3 3 3 4 4 4 4 4 3 3 3 4 4 4 4 3 3 2 3 3 2 2 2 1 1 1 0 0 1 1 0 0 1 0 0 0 0 0 0 0 1
2 2 2 3 3 3 4 4 4 4 4 3 3 3 4 4 3 3 2 3 3 3 3 2 2 1 1 1 1 0 0 1 1 1 0 1 1 0 0 1 1 0 0 0
3 3 3 3 3 3 3 4 4 5 5 3 3 4 4 4 3 3 2 3 3 2 2 2 1 1 1 1 1 0 1 1 1 1 1 1 0 0 0 0 1 1 1 0
3 3 3 3 3 4 4 4 4 5 5 4 4 4 3 3 3 2 3 3 2 3 2 1 1 2 1 1 0 0 0 1 1 1 1 0 0 0 0 0 0 1 0 0
3 3 3 3 3 4 5 4 4 4 4 4 4 4 4 4 3 2 3 2 2 2 2 1 2 2 1 1 0 0 0 1 1 1 1 1 1 1 1 0 0 0 0 0
3 3 3 3 2 3 4 4 4 4 4 4 4 4 3 3 2 2 2 3 3 2 1 2 2 2 1 1 0 0 0 0 1 1 0 0 0 0 0 0 0 0 0 0
3 2 2 2 2 3 4 4 4 4 4 3 3 4 3 2 2 2 2 2 2 2 1 1 2 2 1 1 0 0 0 0 0 1 1 1 1 1 1 0 0 1 1 1
2 3 3 3 3 3 3 3 3 3 3 3 3 3 3 2 1 1 1 1 1 2 2 1 1 1 0 0 0 1 0 1 0 0 1 1 1 1 1 1 1 1 1 1
2 2 2 2 3 3 3 3 3 3 3 3 4 3 3 2 2 1 1 1 1 1 1 1 1 1 1 1 1 1 0 0 1 1 1 1 1 1 1 1 1 1 1 2
Wind_Direction
257 270 203 228 241 211 201 200 203 233 245 277 292 291 306 353 38 40 25 20 22 22 17 11 7 359 355 348 344 354 37 21 306 318 304 294 308 299 285 278 288 270 253 274
315 316 266 293 269 230 231 222 231 257 273 283 289 334 348 326 95 22 346 342 346 1 8 357 349 341 342 339 333 339 331 302 319 332 342 333 305 326 341 312 312 326 258 250
299 327 8 288 247 207 206 209 202 231 250 289 304 271 261 255 245 263 307 326 323 323 315 316 316 323 324 319 333 352 339 324 325 320 324 334 356 24 329 290 283 306 292 264
150 47 241 253 284 197 207 249 228 241 264 265 270 282 281 254 219 257 300 308 310 318 321 322 326 334 339 343 357 357 351 337 326 325 330 350 18 355 310 297 258 261 290 290
142 209 277 298 308 155 204 278 267 248 293 322 350 347 308 264 229 250 265 274 286 305 315 319 325 334 345 355 359 353 340 323 311 305 303 311 302 290 293 293 274 263 265 305
141 179 237 275 315 302 145 280 331 305 292 324 16 304 282 320 322 316 318 317 321 334 343 337 329 342 348 338 337 321 311 312 312 298 269 266 272 279 288 272 263 273 310 309
182 219 263 292 311 37 167 265 319 298 281 272 238 245 283 310 310 315 322 327 341 353 342 326 333 346 336 331 311 309 317 327 340 331 299 278 296 301 288 311 39 33 19 359
154 200 264 317 65 161 247 311 321 309 300 286 286 297 305 312 316 332 338 336 343 349 342 336 339 342 326 314 314 324 330 346 355 356 347 356 23 4 24 79 77 38 31 18
196 217 263 271 224 281 301 304 303 302 307 301 302 308 320 326 325 328 331 329 334 340 340 338 336 325 306 313 326 340 1 6 7 6 9 17 51 53 42 56 70 36 33 17
253 269 277 283 289 310 302 288 297 301 303 295 297 309 321 327 328 329 327 328 330 345 340 326 325 325 319 325 338 1 11 4 14 24 22 24 25 39 57 56 57 39 32 358
260 287 310 306 300 306 315 322 328 331 323 293 285 306 313 319 319 317 321 327 323 308 302 305 317 330 341 344 351 3 13 12 14 28 29 29 29 28 34 16 68 184 234 230
241 261 262 280 309 326 323 318 315 321 325 324 298 296 312 317 319 319 319 320 319 317 315 315 323 332 341 340 338 10 23 18 19 31 29 33 34 30 34 38 39 37 38 56
253 283 266 275 305 326 311 313 320 315 301 315 327 324 324 323 324 324 321 319 311 309 314 323 339 345 345 347 350 1 352 344 30 38 34 28 25 37 21 18 31 35 39 45
271 296 288 286 292 320 327 331 337 338 335 326 327 335 337 332 329 326 319 315 317 319 322 337 345 336 338 350 3 358 5 30 58 53 16 15 7 15 38 38 13 5 14 32
302 268 251 270 304 328 345 357 354 341 341 340 341 339 335 329 320 317 318 323 333 335 338 345 338 329 337 349 14 12 3 345 42 51 24 22 34 47 51 46 45 21 13 16
309 310 282 281 294 313 329 332 320 313 317 320 325 325 323 319 315 317 322 328 323 315 316 320 318 323 333 343 358 4 1 17 37 63 61 46 39 55 63 58 55 43 22 8
289 297 298 298 297 299 296 291 286 289 295 300 305 314 321 324 325 323 326 332 322 312 310 311 315 324 331 336 329 334 6 27 45 45 62 78 74 81 106 85 58 48 14 9
255 260 259 262 272 290 300 299 293 294 289 293 304 309 307 301 298 303 313 327 338 337 326 316 320 332 336 341 348 33 57 67 65 82 110 116 105 84 108 112 38 31 19 12
288 287 287 279 279 283 292 299 300 295 287 286 288 288 286 285 287 291 299 308 309 308 309 316 326 348 342 340 354 31 78 99 86 63 90 137 79 75 103 139 197 264 24 30
308 307 302 301 303 298 296 299 301 298 285 275 277 283 289 290 291 289 290 288 279 278 286 296 308 303 308 304 350 4 141 143 140 143 106 107 113 127 170 182 190 195 172 18
303 306 305 305 307 306 298 296 296 295 294 280 266 268 276 285 287 280 273 285 295 303 301 301 314 295 299 287 329 282 161 147 145 147 141 136 132 113 114 191 202 209 206 222
289 290 294 298 301 303 306 304 297 295 294 290 280 276 280 287 288 285 270 264 279 300 317 282 276 281 298 324 352 53 134 128 132 139 144 154 166 178 213 280 234 228 205 190
280 281 285 289 292 297 305 305 299 298 291 288 283 276 273 273 272 266 279 291 296 295 316 274 285 296 320 36 36 24 151 147 162 179 196 209 215 217 224 246 285 317 51 89
277 283 288 294 299 301 303 308 310 307 298 294 291 283 275 275 285 279 276 280 292 301 304 286 307 325 15 13 4 311 200 189 193 195 204 225 247 250 257 265 299 325 341 355
270 275 281 288 292 289 292 307 315 315 313 308 306 304 295 275 266 279 290 284 289 314 323 310 330 343 1 360 357 329 298 242 199 182 204 215 233 246 258 274 292 296 295 298
269 268 268 267 271 276 282 291 297 302 308 310 314 318 318 316 312 302 304 312 306 320 333 323 303 308 341 325 310 307 299 292 299 276 257 243 248 254 265 277 288 289 292 294
271 273 280 290 288 279 280 281 284 289 292 292 298 308 315 319 325 324 322 320 319 320 322 322 309 286 279 276 282 276 266 261 254 247 237 241 249 255 264 268 279 284 287 287
Height
1471 1468 1469 1467 1467 1468 1468 1469 1471 1466 1465 1460 1459 1459 1458 1458 1457 1457 1457 1456 1456 1456 1456 1456 1457 1457 1457 1457 1458 1458 1459 1459 1460 1460 1461 1461 1462 1462 1462 1462 1462 1462 1463 1463
1470 1467 1467 1466 1465 1465 1465 1466 1466 1464 1462 1459 1458 1458 1458 1457 1457 1457 1457 1456 1456 1456 1456 1456 1456 1456 1456 1456 1456 1457 1457 1458 1458 1458 1459 1459 1459 1459 1459 1460 1460 1460 1460 1460
1473 1470 1466 1468 1464 1464 1464 1463 1463 1462 1459 1458 1458 1458 1457 1457 1456 1456 1456 1456 1456 1455 1455 1455 1455 1455 1455 1455 1455 1455 1455 1456 1456 1456 1457 1457 1457 1457 1457 1457 1457 1457 1457 1457
1477 1475 1476 1465 1460 1459 1461 1461 1460 1458 1457 1457 1457 1456 1456 1456 1456 1455 1455 1455 1455 1454 1454 1454 1454 1454 1454 1454 1453 1453 1453 1454 1454 1454 1455 1455 1455 1455 1455 1455 1455 1455 1455 1455
1480 1479 1472 1463 1461 1461 1462 1461 1459 1458 1457 1457 1456 1455 1455 1455 1455 1454 1454 1454 1454 1453 1453 1453 1452 1452 1452 1452 1452 1452 1452 1452 1452 1452 1452 1453 1453 1453 1453 1453 1452 1452 1452 1452
1480 1477 1472 1463 1460 1459 1461 1461 1458 1457 1457 1457 1456 1458 1454 1453 1453 1453 1452 1452 1451 1451 1451 1451 1450 1451 1450 1450 1450 1450 1450 1450 1450 1450 1450 1451 1451 1451 1451 1451 1450 1450 1450 1450
1478 1478 1470 1464 1460 1458 1464 1461 1457 1456 1455 1455 1455 1455 1453 1451 1451 1451 1450 1450 1449 1449 1448 1448 1448 1448 1448 1448 1448 1448 1448 1448 1448 1448 1448 1449 1449 1449 1449 1449 1449 1448 1448 1448
1479 1477 1472 1462 1460 1462 1461 1457 1456 1455 1454 1453 1452 1451 1450 1449 1448 1448 1447 1447 1447 1446 1446 1446 1446 1446 1446 1446 1446 1446 1446 1446 1446 1446 1446 1447 1447 1447 1447 1447 1447 1447 1446 1446
1472 1470 1463 1461 1460 1459 1458 1457 1455 1454 1453 1452 1450 1449 1448 1447 1446 1446 1445 1445 1445 1444 1444 1444 1444 1444 1444 1444 1444 1444 1444 1444 1444 1444 1445 1445 1445 1445 1445 1445 1445 1445 1445 1445
1468 1463 1460 1459 1458 1457 1456 1455 1454 1453 1452 1450 1449 1447 1446 1445 1445 1444 1443 1443 1442 1442 1441 1441 1442 1442 1442 1442 1442 1442 1442 1442 1442 1442 1443 1443 1443 1443 1443 1443 1443 1443 1443 1443
1465 1461 1459 1457 1456 1456 1454 1453 1452 1451 1450 1449 1447 1446 1445 1444 1443 1442 1441 1441 1441 1440 1439 1439 1439 1439 1440 1440 1440 1440 1440 1440 1440 1440 1441 1441 1441 1442 1442 1442 1442 1442 1442 1442
1463 1460 1459 1457 1456 1454 1453 1452 1450 1449 1448 1447 1446 1444 1443 1442 1442 1441 1440 1439 1439 1438 1438 1437 1437 1437 1437 1438 1438 1438 1438 1438 1438 1439 1439 1439 1439 1439 1440 1440 1440 1441 1441 1441
1458 1457 1456 1455 1454 1453 1452 1450 1449 1448 1446 1445 1444 1443 1442 1441 1440 1439 1438 1438 1437 1437 1436 1436 1435 1435 1436 1436 1436 1436 1436 1436 1436 1437 1437 1437 1438 1438 1438 1439 1439 1439 1439 1439
1456 1455 1454 1453 1452 1451 1450 1448 1447 1446 1445 1444 1443 1442 1441 1440 1439 1438 1437 1436 1436 1435 1435 1434 1434 1434 1434 1434 1434 1434 1435 1435 1435 1435 1436 1436 1436 1436 1437 1437 1437 1437 1437 1438
1453 1453 1452 1451 1450 1449 1448 1446 1445 1444 1443 1442 1441 1440 1439 1438 1437 1436 1435 1435 1434 1433 1433 1432 1432 1432 1432 1432 1432 1432 1433 1433 1433 1434 1434 1434 1435 1435 1435 1435 1436 1436 1436 1437
1451 1450 1449 1449 1448 1447 1446 1444 1443 1442 1441 1440 1439 1438 1437 1436 1435 1434 1433 1433 1432 1431 1431 1431 1430 1430 1430 1430 1430 1430 1431 1431 1432 1432 1432 1433 1433 1433 1433 1434 1434 1435 1435 1435
1449 1447 1447 1446 1445 1444 1444 1443 1442 1440 1439 1438 1437 1436 1435 1434 1433 1432 1432 1431 1431 1430 1429 1429 1429 1429 1429 1428 1428 1428 1428 1429 1430 1430 1431 1431 1431 1432 1432 1433 1433 1433 1434 1434
1447 1446 1445 1444 1443 1442 1441 1440 1439 1438 1437 1436 1435 1434 1433 1432 1431 1430 1429 1429 1428 1428 1428 1428 1427 1427 1427 1427 1427 1427 1427 1427 1428 1428 1429 1429 1430 1430 1431 1431 1432 1432 1433 1433
1444 1444 1443 1442 1441 1440 1439 1438 1437 1436 1435 1434 1433 1432 1431 1430 1429 1428 1427 1427 1426 1425 1425 1426 1425 1425 1425 1425 1425 1425 1425 1426 1426 1426 1427 1427 1428 1428 1429 1429 1430 1431 1431 1432
1442 1441 1440 1439 1439 1438 1436 1435 1434 1433 1432 1432 1431 1429 1429 1428 1427 1426 1425 1424 1424 1424 1423 1423 1423 1423 1423 1423 1423 1423 1423 1424 1424 1424 1425 1425 1426 1426 1427 1427 1428 1429 1429 1430
1440 1439 1438 1437 1436 1435 1434 1433 1431 1430 1429 1429 1428 1427 1426 1425 1425 1424 1423 1421 1422 1422 1421 1421 1421 1421 1421 1421 1421 1422 1422 1422 1422 1423 1423 1423 1424 1424 1425 1425 1426 1427 1427 1428
1437 1436 1435 1434 1433 1432 1431 1430 1429 1428 1427 1426 1425 1425 1424 1423 1422 1421 1421 1420 1419 1419 1419 1419 1418 1419 1419 1419 1419 1420 1420 1420 1421 1421 1421 1422 1422 1422 1423 1423 1424 1424 1425 1426
1435 1434 1432 1431 1430 1429 1428 1427 1426 1425 1424 1423 1422 1422 1421 1420 1420 1419 1417 1418 1417 1417 1417 1416 1416 1417 1417 1417 1417 1418 1418 1419 1419 1419 1420 1420 1420 1421 1421 1421 1422 1422 1423 1423
1432 1431 1430 1429 1428 1426 1425 1424 1424 1423 1422 1421 1420 1420 1419 1418 1417 1417 1416 1415 1415 1415 1414 1414 1415 1415 1415 1415 1415 1416 1416 1417 1417 1418 1418 1419 1419 1419 1420 1420 1420 1420 1421 1421
1429 1428 1427 1426 1425 1424 1423 1422 1421 1420 1419 1418 1418 1417 1417 1416 1415 1414 1413 1413 1413 1412 1412 1412 1413 1413 1413 1413 1414 1414 1415 1415 1416 1416 1417 1417 1418 1418 1418 1418 1418 1419 1419 1420
1426 1425 1424 1424 1423 1422 1421 1420 1418 1417 1417 1415 1415 1415 1414 1413 1413 1412 1411 1411 1410 1410 1410 1410 1410 1410 1410 1411 1412 1412 1413 1413 1414 1415 1415 1416 1416 1416 1416 1417 1417 1417 1418 1418
1423 1422 1422 1421 1420 1420 1419 1418 1417 1416 1415 1414 1413 1412 1412 1411 1410 1410 1409 1408 1408 1408 1408 1408 1408 1408 1408 1409 1409 1410 1411 1411 1412 1413 1413 1414 1414 1414 1415 1415 1415 1416 1416 1416